This is the latest recevied weather packets stored in our database for station/object KE4EST. If no packets are shown the sender has not sent any weather packets the latest 10 day(s).
| Time | Temp. | Humidity | Pressure | Rain* | Wind** | Luminosity | Snow |
|---|---|---|---|---|---|---|---|
| 1777850274 | 15.56° C | 40% | 1017.2 hPa | 0 mm | - | 16 W/m² | - |
| 1777849971 | 16.11° C | 40% | 1017.3 hPa | 0 mm | - | 20 W/m² | - |
| 1777849666 | 16.11° C | 39% | 1017.2 hPa | 0 mm | - | 18 W/m² | - |
| 1777849364 | 16.11° C | 39% | 1017.5 hPa | 0 mm | - | 19 W/m² | - |
| 1777849062 | 16.11° C | 38% | 1017.4 hPa | 0 mm | - | 20 W/m² | - |
| 1777848762 | 16.67° C | 38% | 1017.6 hPa | 0 mm | - | 20 W/m² | - |
| 1777848458 | 16.67° C | 38% | 1017.5 hPa | 0 mm | - | 34 W/m² | - |
| 1777848156 | 16.67° C | 39% | 1017.3 hPa | 0 mm | - | 24 W/m² | - |
| 1777847854 | 16.67° C | 36% | 1017.2 hPa | 0 mm | - | 24 W/m² | - |
| 1777847551 | 16.67° C | 36% | 1017.3 hPa | 0 mm | - | 25 W/m² | - |
| 1777847247 | 16.67° C | 35% | 1017.4 hPa | 0 mm | - | 24 W/m² | - |
| 1777846945 | 17.22° C | 35% | 1017.3 hPa | 0 mm | - | 27 W/m² | - |
| 1777846643 | 17.22° C | 35% | 1017.2 hPa | 0 mm | - | 46 W/m² | - |
| 1777846341 | 17.78° C | 35% | 1017.3 hPa | 0 mm | - | 230 W/m² | - |
| 1777846037 | 17.78° C | 39% | 1017.2 hPa | 0 mm | - | 245 W/m² | - |
| 1777845734 | 17.78° C | 35% | 1017.2 hPa | 0 mm | - | 258 W/m² | - |
| 1777845425 | 17.78° C | 37% | 1017.3 hPa | 0 mm | - | 259 W/m² | - |
| 1777845121 | 17.78° C | 35% | 1017.4 hPa | 0 mm | - | 91 W/m² | - |
| 1777844821 | 17.78° C | 35% | 1017.5 hPa | 0 mm | - | 303 W/m² | - |
| 1777844516 | 17.78° C | 33% | 1017.4 hPa | 0 mm | - | 181 W/m² | - |
| 1777844215 | 17.78° C | 34% | 1017.4 hPa | 0 mm | - | 41 W/m² | - |
| 1777843912 | 17.78° C | 34% | 1017.4 hPa | 0 mm | - | 34 W/m² | - |
| 1777843609 | 17.78° C | 32% | 1017.6 hPa | 0 mm | - | 126 W/m² | - |
| 1777843306 | 17.78° C | 31% | 1017.6 hPa | 0 mm | - | 50 W/m² | - |
| 1777843004 | 17.78° C | 33% | 1017.7 hPa | 0 mm | - | 46 W/m² | - |
* Rain latest hour (hover to see other rain measurements)
** Current wind speed in m/s (hover to see current wind gust speed)